Oklahoma City Wiley Post, OK

2:35 PM CDT on September 25, 2017 (GMT -0500)
Wiley Post

Weather History for KPWA - November, 2012

Change the Weather History Date:

Wednesday, November 7, 2012

  Actual Average Record
Temperature  
Mean Temperature 52 °F -  
Max Temperature 68 °F 62 °F 81 °F (2005)
Min Temperature 37 °F 40 °F 22 °F (1971)
Degree Days  
Heating Degree Days 12    
Growing Degree Days 2 (Base 50)    
Moisture  
Dew Point 32 °F    
Average Humidity 51    
Maximum Humidity 83    
Minimum Humidity 21    
Precipitation  
Precipitation 0.00 in - - ()
Sea Level Pressure  
Sea Level Pressure 30.13 in    
Wind  
Wind Speed 3 mph (SE)    
Max Wind Speed 16 mph    
Max Gust Speed -    
Visibility 10 miles    
Events      
Averages and records for this station are not official NWS values.
T = Trace of Precipitation, MM = Missing Value Source: NWS Daily Summary

Daily Weather History Graph

Daily Weather History Graph

Search for Another Location

Airport or City:

Trip Planner

Search our weather history database for the weather conditions in past years. The results will help you decide how hot, cold, wet, or windy it might be!

Date:

Astronomy

Nov. 07, 2012 Rise Set
Actual Time 6:58 AM CST 5:29 PM CST
Civil Twilight 6:32 AM CST 5:56 PM CST
Nautical Twilight 6:01 AM CST 6:26 PM CST
Astronomical Twilight 5:31 AM CST 6:56 PM CST
Moon 12:08 AM CST (11/7) 1:26 PM CST (11/7)
Length of Visible Light 11h 24m
Length of Day
10h 30m
Last Quarter, 43% of the Moon is Illuminated
Nov 7
Last Quarter
Nov 13
New
Nov 20
First Quarter
Nov 28
Full
Dec 6
Last Quarter

Hourly Weather History & Observations

Time (CST) Temp. Dew Point Humidity Pressure Visibility Wind Dir Wind Speed Gust Speed Precip Events Conditions
12:53 AM 46.0 °F 34.0 °F 63% 30.15 in 10.0 mi Calm Calm - N/A   Clear
1:53 AM 44.1 °F 35.1 °F 71% 30.15 in 10.0 mi Calm Calm - N/A   Clear
2:53 AM 41.0 °F 34.0 °F 76% 30.16 in 10.0 mi Calm Calm - N/A   Clear
3:53 AM 43.0 °F 34.0 °F 71% 30.15 in 10.0 mi Calm Calm - N/A   Clear
4:53 AM 37.9 °F 33.1 °F 83% 30.17 in 10.0 mi Calm Calm - N/A   Clear
5:53 AM 39.2 °F 33.8 °F 81% 30.19 in 10.0 mi Calm Calm - N/A   Clear
6:53 AM 37.9 °F 33.1 °F 83% 30.20 in 10.0 mi Calm Calm - N/A   Clear
7:53 AM 39.9 °F 35.1 °F 83% 30.22 in 10.0 mi Calm Calm - N/A   Clear
8:53 AM 50.0 °F 35.1 °F 57% 30.22 in 10.0 mi Calm Calm - N/A   Clear
9:53 AM - - N/A% 30.21 in - North - - N/A   Unknown
10:53 AM - - N/A% 30.20 in - North - - N/A   Unknown
11:53 AM - - N/A% 30.17 in - North - - N/A   Unknown
12:53 PM - - N/A% 30.13 in - North - - N/A   Unknown
1:53 PM - - N/A% 30.10 in - North - - N/A   Unknown
3:08 PM 68.0 °F 26.6 °F 21% 30.08 in - North - - N/A   Clear
3:53 PM 68.0 °F 28.0 °F 22% 30.06 in 10.0 mi SSE 8.1 mph - N/A   Clear
4:53 PM 66.9 °F 28.9 °F 24% 30.06 in 10.0 mi SE 8.1 mph - N/A   Clear
5:53 PM 63.0 °F 30.9 °F 30% 30.06 in 10.0 mi SSE 8.1 mph - N/A   Clear
6:53 PM 61.0 °F 30.9 °F 32% 30.06 in 10.0 mi ESE 6.9 mph - N/A   Clear
7:53 PM 57.9 °F 30.0 °F 35% 30.06 in 10.0 mi SE 9.2 mph - N/A   Clear
8:53 PM 57.9 °F 28.9 °F 33% 30.06 in 10.0 mi SE 13.8 mph - N/A   Clear
9:53 PM 57.0 °F 30.0 °F 36% 30.06 in 10.0 mi SE 11.5 mph - N/A   Clear
10:53 PM 57.0 °F 28.9 °F 34% 30.05 in 10.0 mi SSE 16.1 mph - N/A   Clear
11:53 PM 55.9 °F 28.9 °F 36% 30.04 in 10.0 mi SSE 16.1 mph - N/A   Clear